KG5VSR Weather Reports


time (UTC)temp
F
wind
direction
speed
knots
gust
knots
rain 1hr
in
rain 24hr
in
rain mn
in
humidity
%
barometer
mb
20260831083738 84 150 0.9 1.7 0.00 0.00 0.00 65 1015.2
20260831080737 84 213 0.9 1.7 0.00 0.00 0.00 62 1015.0
20260831073736 85 208 0.9 0.9 0.00 0.00 0.00 61 1015.0
20260831070732 82 233 0.0 0.0 0.00 0.00 0.00 65 1014.8
20260831063727 84 240 0.0 0.0 0.00 0.00 0.00 62 1014.9
20260831060724 85 226 0.0 0.0 0.00 0.00 0.00 61 1014.9
20260831053725 84 251 0.0 0.0 0.00 0.00 0.00 61 1014.9
20260831050720 85 260 0.0 0.0 0.00 0.00 0.00 59 1014.9
20260831043718 87 265 0.0 0.0 0.00 0.00 0.00 55 1014.8
20260831040715 89 236 0.0 0.0 0.00 0.00 0.00 53 1014.7
20260831033714 89 219 0.0 0.0 0.00 0.00 0.00 52 1014.5
20260831030709 89 260 0.0 0.0 0.00 0.00 0.00 52 1014.2
20260831023707 90 214 0.0 0.0 0.00 0.00 0.00 50 1013.9
20260831020705 91 250 0.0 0.0 0.00 0.00 0.00 49 1013.7
20260831013704 92 157 0.9 0.9 0.00 0.00 0.00 46 1013.2
20260831010702 94 213 0.9 1.7 0.00 0.00 0.00 44 1012.9
20260831003702 95 167 1.7 1.7 0.00 0.00 0.00 43 1013.0
20260831000703 97 233 0.9 0.9 0.00 0.00 0.00 43 1013.1
20260830233701 98 94 1.7 1.7 0.00 0.00 0.00 41 1013.1
20260830230701 99 155 2.6 2.6 0.00 0.00 0.00 40 1013.2
20260830223701 98 199 1.7 1.7 0.00 0.00 0.00 39 1013.2
20260830220656 102 152 6.1 7.8 0.00 0.00 0.00 36 1013.4
20260830213655 100 216 7.0 7.8 0.00 0.00 0.00 36 1013.5
20260830210655 100 240 0.9 1.7 0.00 0.00 0.00 38 1013.8
20260830203653 102 293 1.7 2.6 0.00 0.00 0.00 37 1014.1
20260830200651 102 299 0.0 0.9 0.00 0.00 0.00 39 1014.5
20260830193650 100 120 2.6 2.6 0.00 0.00 0.00 40 1015.0
20260830190650 100 188 3.5 5.2 0.00 0.00 0.00 41 1015.4
20260830183650 99 114 3.5 5.2 0.00 0.00 0.00 41 1015.9
20260830180649 99 129 2.6 5.2 0.00 0.00 0.00 44 1016.2
20260830173647 98 284 0.9 0.9 0.00 0.00 0.00 46 1016.5
20260830170643 98 186 2.6 4.3 0.00 0.00 0.00 48 1017.3
20260830163639 94 191 2.6 4.3 0.00 0.00 0.00 54 1017.5
20260830160639 92 149 5.2 7.8 0.00 0.00 0.00 57 1017.4
20260830153636 90 293 0.0 0.0 0.00 0.00 0.00 64 1017.4
20260830150636 88 295 0.0 0.9 0.00 0.00 0.00 67 1017.3
20260830143630 86 199 0.9 0.9 0.00 0.00 0.00 70 1017.4
20260830140627 86 288 0.0 0.0 0.00 0.00 0.00 71 1017.7
20260830133627 84 205 0.0 0.9 0.00 0.00 0.00 73 1017.4
20260830130626 81 194 0.9 0.9 0.00 0.00 0.00 75 1017.1
20260830123622 80 227 0.0 0.0 0.00 0.00 0.00 76 1016.8
20260830120617 79 221 0.9 0.9 0.00 0.00 0.00 77 1016.5
20260830113614 80 181 0.9 0.9 0.00 0.00 0.00 75 1016.2
20260830110610 80 215 0.0 0.0 0.00 0.00 0.00 73 1015.8
20260830103606 81 254 0.0 0.9 0.00 0.00 0.00 70 1015.6
20260830100602 80 242 0.0 0.0 0.00 0.00 0.00 69 1015.7
20260830093602 80 269 0.0 0.0 0.00 0.00 0.00 68 1015.4
20260830090603 81 297 0.0 0.0 0.00 0.00 0.00 65 1015.5